| time (UTC) | temp F | wind direction | speed MPH | gust MPH | rain 1hr in | rain 24hr in | rain mn in | humidity % | barometer mb |
| 20260507101519 | 68 | 269 | 2.0 | 6.0 | 0.00 | 0.10 | 0.07 | 73 | 1015.0 |
| 20260507101009 | 67 | 238 | 2.0 | 6.0 | 0.00 | 0.10 | 0.07 | 73 | 1015.1 |
| 20260507100508 | 67 | 283 | 3.0 | 6.0 | 0.00 | 0.10 | 0.07 | 74 | 1015.1 |
| 20260507100022 | 67 | 249 | 2.0 | 4.0 | 0.00 | 0.10 | 0.07 | 71 | 1015.1 |
| 20260507095510 | 67 | 257 | 2.0 | 6.0 | 0.00 | 0.10 | 0.07 | 71 | 1015.0 |
| 20260507095009 | 68 | 220 | 1.0 | 6.0 | 0.00 | 0.10 | 0.07 | 73 | 1015.0 |
| 20260507094524 | 68 | 252 | 3.0 | 7.0 | 0.00 | 0.10 | 0.07 | 73 | 1015.0 |
| 20260507094013 | 68 | 239 | 2.0 | 7.0 | 0.00 | 0.10 | 0.07 | 73 | 1015.1 |
| 20260507093508 | 68 | 246 | 4.0 | 7.0 | 0.00 | 0.10 | 0.07 | 71 | 1015.3 |
| 20260507093008 | 68 | 259 | 2.0 | 7.0 | 0.00 | 0.10 | 0.07 | 73 | 1015.3 |
| 20260507092504 | 68 | 236 | 3.0 | 7.0 | 0.00 | 0.10 | 0.07 | 72 | 1015.2 |
| 20260507092006 | 69 | 270 | 3.0 | 5.0 | 0.00 | 0.10 | 0.07 | 72 | 1015.1 |
| 20260507091514 | 69 | 218 | 1.0 | 3.0 | 0.00 | 0.10 | 0.07 | 70 | 1015.1 |
| 20260507091009 | 68 | 230 | 0.0 | 2.0 | 0.00 | 0.10 | 0.07 | 72 | 1015.1 |
| 20260507090505 | 68 | 82 | 1.0 | 3.0 | 0.00 | 0.10 | 0.07 | 71 | 1015.1 |
| 20260507090020 | 68 | 168 | 1.0 | 4.0 | 0.00 | 0.10 | 0.07 | 74 | 1015.2 |
| 20260507085509 | 67 | 153 | 2.0 | 6.0 | 0.00 | 0.10 | 0.07 | 74 | 1015.2 |
| 20260507085008 | 67 | 141 | 1.0 | 6.0 | 0.00 | 0.10 | 0.07 | 76 | 1015.3 |
| 20260507084524 | 67 | 226 | 4.0 | 7.0 | 0.00 | 0.10 | 0.07 | 75 | 1015.3 |
| 20260507084013 | 67 | 174 | 1.0 | 7.0 | 0.00 | 0.10 | 0.07 | 74 | 1015.4 |
| 20260507083508 | 67 | 251 | 3.0 | 6.0 | 0.00 | 0.10 | 0.07 | 76 | 1015.3 |
| 20260507083024 | 67 | 242 | 3.0 | 6.0 | 0.00 | 0.10 | 0.07 | 74 | 1015.3 |
| 20260507082506 | 68 | 251 | 3.0 | 6.0 | 0.00 | 0.10 | 0.07 | 73 | 1015.3 |
| 20260507082011 | 68 | 139 | 1.0 | 4.0 | 0.00 | 0.10 | 0.07 | 77 | 1015.3 |
| 20260507081512 | 67 | 254 | 1.0 | 4.0 | 0.00 | 0.10 | 0.07 | 76 | 1015.2 |
| 20260507081007 | 67 | 218 | 1.0 | 4.0 | 0.00 | 0.10 | 0.07 | 75 | 1015.2 |
| 20260507080505 | 67 | 187 | 1.0 | 4.0 | 0.00 | 0.10 | 0.07 | 76 | 1015.3 |
| 20260507080017 | 67 | 130 | 1.0 | 4.0 | 0.00 | 0.10 | 0.07 | 79 | 1015.2 |
| 20260507075505 | 66 | 259 | 1.0 | 4.0 | 0.00 | 0.10 | 0.07 | 77 | 1015.3 |
| 20260507075007 | 66 | 231 | 1.0 | 6.0 | 0.00 | 0.10 | 0.07 | 79 | 1015.3 |
| 20260507074520 | 66 | 184 | 2.0 | 6.0 | 0.00 | 0.10 | 0.07 | 79 | 1015.2 |
| 20260507074012 | 66 | 237 | 1.0 | 4.0 | 0.00 | 0.10 | 0.07 | 81 | 1015.2 |
| 20260507073510 | 65 | 117 | 1.0 | 5.0 | 0.00 | 0.10 | 0.07 | 82 | 1015.3 |
| 20260507073024 | 64 | 71 | 1.0 | 5.0 | 0.00 | 0.10 | 0.07 | 83 | 1015.4 |
| 20260507072509 | 65 | 260 | 1.0 | 3.0 | 0.00 | 0.10 | 0.07 | 82 | 1015.4 |
| 20260507072011 | 65 | 248 | 1.0 | 3.0 | 0.00 | 0.10 | 0.07 | 84 | 1015.3 |
| 20260507071533 | 64 | 281 | 1.0 | 4.0 | 0.00 | 0.10 | 0.07 | 84 | 1015.4 |
| 20260507071011 | 63 | 120 | 1.0 | 4.0 | 0.00 | 0.10 | 0.07 | 85 | 1015.5 |
| 20260507070512 | 63 | 106 | 2.0 | 4.0 | 0.00 | 0.10 | 0.07 | 85 | 1015.4 |
| 20260507070014 | 63 | 92 | 1.0 | 4.0 | 0.00 | 0.10 | 0.07 | 86 | 1015.3 |
| 20260507065504 | 63 | 80 | 1.0 | 4.0 | 0.00 | 0.10 | 0.07 | 86 | 1015.3 |
| 20260507065009 | 63 | 283 | 1.0 | 4.0 | 0.00 | 0.10 | 0.07 | 87 | 1015.1 |
| 20260507064531 | 62 | 106 | 1.0 | 6.0 | 0.00 | 0.10 | 0.07 | 87 | 1015.1 |
| 20260507064011 | 62 | 138 | 1.0 | 6.0 | 0.00 | 0.10 | 0.07 | 88 | 1015.1 |
| 20260507063508 | 62 | 245 | 0.0 | 4.0 | 0.00 | 0.10 | 0.07 | 90 | 1015.0 |
| 20260507063024 | 61 | 191 | 1.0 | 4.0 | 0.00 | 0.10 | 0.07 | 89 | 1014.9 |
| 20260507062516 | 61 | 134 | 0.0 | 5.0 | 0.00 | 0.10 | 0.07 | 91 | 1014.9 |
| 20260507062010 | 61 | 136 | 0.0 | 5.0 | 0.00 | 0.10 | 0.07 | 91 | 1014.9 |
| 20260507061524 | 61 | 94 | 1.0 | 3.0 | 0.00 | 0.10 | 0.07 | 91 | 1014.9 |
| 20260507061010 | 60 | 88 | 1.0 | 2.0 | 0.00 | 0.10 | 0.07 | 92 | 1014.9 |
| 20260507060508 | 60 | 20 | 1.0 | 3.0 | 0.00 | 0.10 | 0.07 | 92 | 1014.9 |
| 20260507060026 | 59 | 132 | 1.0 | 3.0 | 0.00 | 0.10 | 0.07 | 94 | 1014.7 |
| 20260507055508 | 59 | 115 | 1.0 | 4.0 | 0.00 | 0.10 | 0.07 | 94 | 1014.6 |
| 20260507055018 | 58 | 75 | 2.0 | 4.0 | 0.00 | 0.10 | 0.07 | 94 | 1014.6 |
| 20260507054516 | 58 | 77 | 2.0 | 3.0 | 0.00 | 0.10 | 0.07 | 94 | 1014.6 |
| 20260507054006 | 57 | 86 | 1.0 | 3.0 | 0.00 | 0.10 | 0.07 | 94 | 1014.6 |
| 20260507053506 | 57 | 76 | 1.0 | 3.0 | 0.00 | 0.10 | 0.07 | 94 | 1014.6 |
| 20260507053023 | 57 | 68 | 1.0 | 3.0 | 0.00 | 0.10 | 0.07 | 94 | 1014.7 |
| 20260507052509 | 56 | 55 | 1.0 | 3.0 | 0.00 | 0.11 | 0.07 | 94 | 1014.6 |
| 20260507052007 | 56 | 43 | 1.0 | 2.0 | 0.00 | 0.11 | 0.07 | 94 | 1014.6 |
| 20260507051524 | 56 | 68 | 1.0 | 1.0 | 0.00 | 0.11 | 0.07 | 94 | 1014.6 |
| 20260507051009 | 56 | 68 | 0.0 | 2.0 | 0.00 | 0.11 | 0.07 | 94 | 1014.6 |
| 20260507050514 | 56 | 68 | 1.0 | 2.0 | 0.00 | 0.11 | 0.07 | 94 | 1014.5 |
| 20260507050037 | 55 | 63 | 1.0 | 2.0 | 0.00 | 0.11 | 0.07 | 94 | 1014.5 |
| 20260507045515 | 55 | 40 | 1.0 | 2.0 | 0.00 | 0.10 | 0.06 | 94 | 1014.4 |
| 20260507045008 | 55 | 53 | 1.0 | 2.0 | 0.00 | 0.10 | 0.06 | 94 | 1014.3 |
| 20260507044529 | 55 | 58 | 1.0 | 2.0 | 0.00 | 0.10 | 0.06 | 94 | 1014.3 |
| 20260507044011 | 55 | 60 | 1.0 | 2.0 | 0.00 | 0.10 | 0.06 | 94 | 1014.3 |
| 20260507043507 | 55 | 68 | 1.0 | 2.0 | 0.00 | 0.10 | 0.06 | 94 | 1014.2 |
| 20260507043018 | 55 | 65 | 1.0 | 2.0 | 0.00 | 0.11 | 0.06 | 94 | 1014.2 |
| 20260507042507 | 55 | 37 | 1.0 | 2.0 | 0.00 | 0.11 | 0.06 | 94 | 1014.2 |
| 20260507042007 | 55 | 46 | 1.0 | 2.0 | 0.00 | 0.11 | 0.06 | 94 | 1014.1 |
| 20260507041526 | 55 | 41 | 1.0 | 1.0 | 0.00 | 0.11 | 0.06 | 94 | 1014.1 |
| 20260507041007 | 55 | 41 | 0.0 | 2.0 | 0.00 | 0.12 | 0.06 | 94 | 1014.0 |
| 20260507040509 | 55 | 41 | 1.0 | 2.0 | 0.00 | 0.13 | 0.06 | 94 | 1014.0 |
| 20260507040026 | 55 | 30 | 0.0 | 2.0 | 0.00 | 0.14 | 0.06 | 94 | 1014.1 |
| 20260507035507 | 55 | 33 | 1.0 | 2.0 | 0.00 | 0.14 | 0.06 | 94 | 1013.9 |
| 20260507035011 | 56 | 110 | 0.0 | 2.0 | 0.00 | 0.14 | 0.06 | 94 | 1013.8 |
| 20260507034526 | 56 | 110 | 0.0 | 2.0 | 0.00 | 0.14 | 0.06 | 94 | 1013.8 |
| 20260507034011 | 56 | 119 | 0.0 | 1.0 | 0.00 | 0.14 | 0.06 | 94 | 1013.8 |
| 20260507033509 | 56 | 120 | 0.0 | 1.0 | 0.00 | 0.14 | 0.06 | 94 | 1013.8 |
| 20260507033028 | 56 | 99 | 0.0 | 2.0 | 0.00 | 0.15 | 0.06 | 94 | 1013.7 |
| 20260507032510 | 56 | 76 | 0.0 | 3.0 | 0.00 | 0.16 | 0.06 | 94 | 1013.8 |
| 20260507032012 | 56 | 75 | 1.0 | 3.0 | 0.00 | 0.17 | 0.06 | 94 | 1013.8 |
| 20260507031517 | 56 | 103 | 1.0 | 3.0 | 0.00 | 0.18 | 0.06 | 94 | 1013.7 |
| 20260507031007 | 57 | 86 | 1.0 | 3.0 | 0.00 | 0.18 | 0.06 | 94 | 1013.8 |
| 20260507030511 | 57 | 136 | 0.0 | 2.0 | 0.00 | 0.19 | 0.06 | 94 | 1013.8 |
| 20260507030028 | 57 | 96 | 1.0 | 3.0 | 0.00 | 0.19 | 0.06 | 94 | 1013.8 |
| 20260507025507 | 57 | 141 | 0.0 | 3.0 | 0.00 | 0.19 | 0.06 | 94 | 1013.8 |
| 20260507025011 | 57 | 88 | 1.0 | 2.0 | 0.00 | 0.19 | 0.06 | 94 | 1013.9 |
| 20260507024528 | 57 | 113 | 0.0 | 2.0 | 0.00 | 0.19 | 0.06 | 94 | 1013.9 |
| 20260507024009 | 57 | 134 | 0.0 | 2.0 | 0.00 | 0.19 | 0.06 | 94 | 1013.9 |
| 20260507023509 | 57 | 116 | 1.0 | 2.0 | 0.00 | 0.19 | 0.06 | 94 | 1013.9 |
| 20260507023010 | 57 | 105 | 0.0 | 3.0 | 0.00 | 0.19 | 0.06 | 94 | 1014.0 |
| 20260507022505 | 58 | 127 | 0.0 | 3.0 | 0.00 | 0.19 | 0.06 | 94 | 1014.0 |
| 20260507022006 | 58 | 117 | 0.0 | 2.0 | 0.00 | 0.19 | 0.06 | 94 | 1014.0 |
| 20260507021517 | 58 | 115 | 1.0 | 3.0 | 0.00 | 0.19 | 0.06 | 94 | 1014.0 |
| 20260507021005 | 58 | 90 | 0.0 | 4.0 | 0.00 | 0.19 | 0.06 | 94 | 1014.0 |
| 20260507020506 | 58 | 161 | 0.0 | 4.0 | 0.00 | 0.19 | 0.06 | 94 | 1014.0 |
| 20260507020020 | 58 | 129 | 0.0 | 3.0 | 0.00 | 0.19 | 0.06 | 94 | 1014.0 |
| 20260507015511 | 59 | 140 | 1.0 | 3.0 | 0.00 | 0.19 | 0.06 | 94 | 1014.1 |
| 20260507015007 | 59 | 94 | 0.0 | 2.0 | 0.00 | 0.19 | 0.06 | 94 | 1014.0 |
| 20260507014525 | 59 | 123 | 0.0 | 3.0 | 0.00 | 0.19 | 0.06 | 94 | 1014.0 |
| 20260507014009 | 59 | 107 | 0.0 | 3.0 | 0.00 | 0.19 | 0.06 | 94 | 1014.0 |
| 20260507013507 | 59 | 129 | 0.0 | 2.0 | 0.00 | 0.19 | 0.06 | 94 | 1014.0 |
| 20260507013025 | 59 | 114 | 0.0 | 3.0 | 0.00 | 0.19 | 0.06 | 94 | 1014.0 |
| 20260507012508 | 59 | 108 | 0.0 | 3.0 | 0.00 | 0.19 | 0.06 | 94 | 1014.0 |
| 20260507012010 | 59 | 103 | 0.0 | 4.0 | 0.00 | 0.19 | 0.06 | 94 | 1014.1 |
| 20260507011512 | 59 | 153 | 1.0 | 4.0 | 0.00 | 0.19 | 0.06 | 94 | 1014.0 |
| 20260507011005 | 59 | 103 | 1.0 | 3.0 | 0.00 | 0.19 | 0.06 | 94 | 1014.0 |
| 20260507010509 | 59 | 153 | 1.0 | 3.0 | 0.00 | 0.19 | 0.06 | 94 | 1014.0 |
| 20260507010017 | 59 | 110 | 0.0 | 3.0 | 0.00 | 0.19 | 0.06 | 93 | 1014.0 |
| 20260507005505 | 59 | 132 | 1.0 | 4.0 | 0.00 | 0.19 | 0.06 | 93 | 1014.1 |
| 20260507005010 | 59 | 139 | 1.0 | 4.0 | 0.00 | 0.19 | 0.06 | 93 | 1014.0 |
| 20260507004522 | 59 | 94 | 1.0 | 4.0 | 0.00 | 0.19 | 0.06 | 93 | 1014.0 |
| 20260507004008 | 59 | 77 | 1.0 | 3.0 | 0.00 | 0.19 | 0.06 | 93 | 1014.2 |
| 20260507003508 | 59 | 154 | 1.0 | 5.0 | 0.00 | 0.19 | 0.06 | 93 | 1014.2 |
| 20260507003025 | 59 | 190 | 0.0 | 5.0 | 0.00 | 0.19 | 0.06 | 93 | 1014.2 |
| 20260507002513 | 60 | 158 | 0.0 | 5.0 | 0.02 | 0.19 | 0.06 | 93 | 1014.1 |
| 20260507002014 | 60 | 127 | 2.0 | 5.0 | 0.03 | 0.19 | 0.06 | 93 | 1014.1 |
| 20260507001527 | 60 | 75 | 1.0 | 5.0 | 0.03 | 0.19 | 0.06 | 94 | 1014.0 |
| 20260507001010 | 60 | 72 | 1.0 | 4.0 | 0.03 | 0.19 | 0.06 | 93 | 1014.1 |
| 20260507000513 | 60 | 139 | 1.0 | 4.0 | 0.03 | 0.19 | 0.06 | 93 | 1014.1 |
| 20260507000015 | 61 | 219 | 1.0 | 3.0 | 0.03 | 0.19 | 0.06 | 94 | 1014.1 |
| 20260506235508 | 61 | 164 | 1.0 | 4.0 | 0.03 | 0.19 | 0.06 | 94 | 1014.1 |
| 20260506235009 | 61 | 145 | 0.0 | 4.0 | 0.04 | 0.19 | 0.06 | 94 | 1014.2 |
| 20260506234521 | 61 | 199 | 0.0 | 3.0 | 0.04 | 0.19 | 0.06 | 94 | 1014.2 |
| 20260506234008 | 61 | 236 | 0.0 | 2.0 | 0.04 | 0.19 | 0.06 | 93 | 1014.2 |
| 20260506233510 | 61 | 72 | 1.0 | 3.0 | 0.04 | 0.19 | 0.06 | 94 | 1014.2 |
| 20260506233024 | 61 | 123 | 0.0 | 3.0 | 0.03 | 0.18 | 0.05 | 94 | 1014.2 |
| 20260506232507 | 60 | 97 | 1.0 | 2.0 | 0.02 | 0.17 | 0.03 | 94 | 1014.3 |
| 20260506232007 | 60 | 120 | 0.0 | 1.0 | 0.01 | 0.16 | 0.03 | 93 | 1014.2 |
| 20260506231527 | 60 | 115 | 0.0 | 1.0 | 0.01 | 0.15 | 0.02 | 93 | 1014.2 |
| 20260506231012 | 60 | 115 | 0.0 | 1.0 | 0.01 | 0.15 | 0.02 | 93 | 1014.2 |
| 20260506230509 | 60 | 235 | 0.0 | 1.0 | 0.01 | 0.15 | 0.02 | 93 | 1014.2 |
| 20260506230029 | 60 | 249 | 0.0 | 3.0 | 0.02 | 0.15 | 0.02 | 93 | 1014.2 |
| 20260506225507 | 61 | 131 | 0.0 | 3.0 | 0.02 | 0.15 | 0.02 | 93 | 1014.1 |
| 20260506225012 | 61 | 127 | 0.0 | 3.0 | 0.02 | 0.14 | 0.01 | 93 | 1013.9 |
| 20260506224514 | 61 | 137 | 0.0 | 3.0 | 0.02 | 0.14 | 0.01 | 93 | 1014.0 |
| 20260506224007 | 61 | 131 | 1.0 | 2.0 | 0.03 | 0.14 | 0.01 | 93 | 1013.9 |
| 20260506223505 | 61 | 141 | 0.0 | 2.0 | 0.03 | 0.14 | 0.01 | 93 | 1013.9 |
| 20260506223018 | 61 | 101 | 1.0 | 2.0 | 0.03 | 0.14 | 0.01 | 93 | 1013.9 |
| 20260506222507 | 61 | 127 | 0.0 | 4.0 | 0.03 | 0.14 | 0.01 | 93 | 1013.9 |
| 20260506222014 | 61 | 91 | 1.0 | 4.0 | 0.03 | 0.14 | 0.01 | 93 | 1013.9 |
| 20260506221523 | 61 | 79 | 1.0 | 5.0 | 0.03 | 0.14 | 0.00 | 93 | 1014.0 |
| 20260506221013 | 61 | 150 | 1.0 | 6.0 | 0.03 | 0.14 | 0.00 | 93 | 1014.0 |
| 20260506220509 | 61 | 185 | 2.0 | 8.0 | 0.03 | 0.14 | 0.00 | 93 | 1014.1 |
| 20260506220035 | 62 | 199 | 2.0 | 8.0 | 0.03 | 0.13 | 0.00 | 93 | 1014.1 |
| 20260506215515 | 62 | 155 | 2.0 | 6.0 | 0.03 | 0.13 | 0.13 | 93 | 1014.1 |
| 20260506215010 | 62 | 74 | 3.0 | 6.0 | 0.02 | 0.12 | 0.12 | 92 | 1014.0 |
| 20260506214529 | 62 | 126 | 2.0 | 5.0 | 0.02 | 0.12 | 0.12 | 92 | 1014.0 |
| 20260506214010 | 62 | 86 | 1.0 | 8.0 | 0.01 | 0.11 | 0.11 | 92 | 1014.0 |
| 20260506213510 | 62 | 103 | 2.0 | 8.0 | 0.01 | 0.11 | 0.11 | 92 | 1014.2 |
| 20260506213018 | 62 | 132 | 2.0 | 9.0 | 0.01 | 0.11 | 0.11 | 92 | 1014.3 |
| 20260506212507 | 62 | 108 | 2.0 | 9.0 | 0.01 | 0.11 | 0.11 | 92 | 1014.3 |
| 20260506212007 | 62 | 157 | 1.0 | 6.0 | 0.00 | 0.11 | 0.11 | 92 | 1014.3 |
| 20260506211529 | 62 | 87 | 2.0 | 6.0 | 0.00 | 0.11 | 0.11 | 92 | 1014.3 |
| 20260506211008 | 62 | 82 | 1.0 | 5.0 | 0.00 | 0.11 | 0.11 | 92 | 1014.3 |
| 20260506210512 | 62 | 150 | 1.0 | 4.0 | 0.00 | 0.10 | 0.10 | 91 | 1014.4 |
| 20260506210028 | 62 | 150 | 1.0 | 5.0 | 0.00 | 0.10 | 0.10 | 91 | 1014.5 |
| 20260506205513 | 62 | 133 | 0.0 | 5.0 | 0.00 | 0.10 | 0.10 | 91 | 1014.4 |
| 20260506205010 | 62 | 166 | 1.0 | 5.0 | 0.00 | 0.10 | 0.10 | 91 | 1014.3 |
| 20260506204528 | 61 | 193 | 1.0 | 5.0 | 0.00 | 0.10 | 0.10 | 90 | 1014.3 |
| 20260506204011 | 62 | 122 | 1.0 | 4.0 | 0.00 | 0.10 | 0.10 | 90 | 1014.2 |
| 20260506203515 | 62 | 155 | 1.0 | 7.0 | 0.00 | 0.10 | 0.10 | 90 | 1014.2 |
| 20260506203031 | 62 | 50 | 3.0 | 7.0 | 0.00 | 0.10 | 0.10 | 90 | 1014.1 |
| 20260506202510 | 62 | 57 | 2.0 | 5.0 | 0.00 | 0.10 | 0.10 | 90 | 1014.1 |
| 20260506202012 | 62 | 110 | 1.0 | 6.0 | 0.00 | 0.10 | 0.10 | 90 | 1014.1 |
| 20260506201529 | 62 | 94 | 2.0 | 7.0 | 0.00 | 0.10 | 0.10 | 89 | 1014.1 |
| 20260506201007 | 62 | 141 | 1.0 | 7.0 | 0.00 | 0.10 | 0.10 | 89 | 1014.0 |
| 20260506200509 | 62 | 100 | 2.0 | 6.0 | 0.00 | 0.10 | 0.10 | 89 | 1014.0 |
| 20260506200023 | 62 | 125 | 2.0 | 5.0 | 0.00 | 0.10 | 0.10 | 89 | 1013.9 |
| 20260506195508 | 62 | 112 | 2.0 | 6.0 | 0.00 | 0.10 | 0.10 | 89 | 1014.0 |
| 20260506195011 | 62 | 92 | 2.0 | 6.0 | 0.00 | 0.10 | 0.10 | 89 | 1014.0 |
| 20260506194524 | 62 | 89 | 1.0 | 6.0 | 0.00 | 0.10 | 0.10 | 88 | 1014.0 |
| 20260506194009 | 62 | 122 | 1.0 | 5.0 | 0.00 | 0.10 | 0.10 | 88 | 1013.9 |
| 20260506193512 | 62 | 96 | 2.0 | 6.0 | 0.00 | 0.10 | 0.10 | 87 | 1013.8 |
| 20260506193027 | 62 | 141 | 2.0 | 6.0 | 0.00 | 0.10 | 0.10 | 87 | 1013.7 |
| 20260506150510 | 65 | 117 | 2.0 | 9.0 | 0.00 | 0.11 | 0.10 | 83 | 1013.1 |
| 20260506150008 | 65 | 68 | 4.0 | 15.0 | 0.00 | 0.11 | 0.10 | 82 | 1013.0 |
| 20260506145506 | 65 | 110 | 3.0 | 15.0 | 0.00 | 0.11 | 0.10 | 83 | 1013.1 |
| 20260506145007 | 65 | 162 | 5.0 | 13.0 | 0.00 | 0.12 | 0.10 | 82 | 1013.0 |
| 20260506144509 | 65 | 140 | 3.0 | 13.0 | 0.00 | 0.13 | 0.10 | 82 | 1013.0 |
| 20260506144009 | 65 | 82 | 3.0 | 11.0 | 0.00 | 0.15 | 0.10 | 82 | 1013.0 |
| 20260506143504 | 65 | 124 | 5.0 | 12.0 | 0.00 | 0.16 | 0.10 | 81 | 1013.0 |
| 20260506143018 | 66 | 114 | 5.0 | 12.0 | 0.00 | 0.16 | 0.10 | 81 | 1012.9 |
| 20260506142509 | 66 | 259 | 4.0 | 11.0 | 0.00 | 0.16 | 0.10 | 80 | 1012.9 |
| 20260506142014 | 66 | 154 | 3.0 | 13.0 | 0.00 | 0.16 | 0.10 | 80 | 1013.0 |
| 20260506141515 | 66 | 113 | 5.0 | 13.0 | 0.00 | 0.16 | 0.10 | 79 | 1013.0 |
| 20260506141011 | 66 | 124 | 3.0 | 10.0 | 0.00 | 0.16 | 0.10 | 79 | 1013.2 |
| 20260506140508 | 67 | 152 | 3.0 | 8.0 | 0.00 | 0.16 | 0.10 | 79 | 1013.2 |
| 20260506140026 | 67 | 179 | 3.0 | 8.0 | 0.00 | 0.16 | 0.10 | 79 | 1013.3 |
| 20260506135507 | 67 | 292 | 2.0 | 7.0 | 0.00 | 0.16 | 0.10 | 79 | 1013.4 |
| 20260506135007 | 67 | 148 | 1.0 | 10.0 | 0.00 | 0.16 | 0.10 | 79 | 1013.5 |
| 20260506134510 | 66 | 79 | 4.0 | 12.0 | 0.00 | 0.16 | 0.10 | 79 | 1013.4 |
| 20260506134004 | 67 | 124 | 4.0 | 13.0 | 0.00 | 0.16 | 0.10 | 78 | 1013.4 |
| 20260506133506 | 67 | 130 | 4.0 | 13.0 | 0.00 | 0.16 | 0.10 | 79 | 1013.4 |
| 20260506133025 | 66 | 152 | 3.0 | 10.0 | 0.00 | 0.16 | 0.10 | 80 | 1013.4 |
| 20260506132513 | 66 | 111 | 3.0 | 10.0 | 0.00 | 0.16 | 0.10 | 80 | 1013.4 |
| 20260506132008 | 66 | 103 | 3.0 | 11.0 | 0.00 | 0.16 | 0.10 | 80 | 1013.4 |
| 20260506131518 | 66 | 102 | 1.0 | 11.0 | 0.00 | 0.16 | 0.10 | 80 | 1013.5 |
| 20260506131008 | 67 | 226 | 2.0 | 9.0 | 0.00 | 0.16 | 0.10 | 79 | 1013.5 |
| 20260506130508 | 67 | 140 | 2.0 | 10.0 | 0.00 | 0.16 | 0.10 | 79 | 1013.6 |
| 20260506130019 | 66 | 81 | 3.0 | 10.0 | 0.00 | 0.16 | 0.10 | 80 | 1013.7 |
| 20260506125509 | 66 | 137 | 3.0 | 14.0 | 0.00 | 0.16 | 0.10 | 79 | 1013.7 |
| 20260506125012 | 66 | 103 | 3.0 | 14.0 | 0.00 | 0.16 | 0.10 | 80 | 1013.7 |
| 20260506124522 | 66 | 80 | 3.0 | 10.0 | 0.00 | 0.16 | 0.10 | 80 | 1013.7 |
| 20260506124008 | 65 | 102 | 4.0 | 10.0 | 0.00 | 0.16 | 0.10 | 81 | 1013.6 |
| 20260506123507 | 65 | 66 | 4.0 | 12.0 | 0.00 | 0.16 | 0.10 | 82 | 1013.6 |
| 20260506123008 | 64 | 61 | 3.0 | 12.0 | 0.00 | 0.16 | 0.10 | 82 | 1013.7 |
| 20260506122508 | 65 | 135 | 3.0 | 9.0 | 0.00 | 0.16 | 0.10 | 82 | 1013.7 |
| 20260506122011 | 65 | 189 | 2.0 | 7.0 | 0.00 | 0.16 | 0.10 | 82 | 1013.9 |
| 20260506121514 | 65 | 135 | 2.0 | 11.0 | 0.00 | 0.16 | 0.10 | 81 | 1013.9 |
| 20260506121007 | 65 | 144 | 2.0 | 11.0 | 0.00 | 0.16 | 0.10 | 80 | 1013.8 |
| 20260506120506 | 66 | 45 | 4.0 | 10.0 | 0.00 | 0.16 | 0.10 | 79 | 1013.8 |
| 20260506120021 | 66 | 191 | 3.0 | 12.0 | 0.00 | 0.16 | 0.10 | 80 | 1013.9 |
| 20260506115511 | 65 | 114 | 3.0 | 12.0 | 0.00 | 0.16 | 0.10 | 81 | 1013.8 |
| 20260506115009 | 65 | 155 | 4.0 | 15.0 | 0.00 | 0.16 | 0.10 | 81 | 1013.8 |
| 20260506114533 | 65 | 86 | 3.0 | 15.0 | 0.00 | 0.16 | 0.10 | 81 | 1013.8 |
| 20260506114010 | 65 | 103 | 5.0 | 15.0 | 0.00 | 0.16 | 0.10 | 80 | 1013.7 |
| 20260506113510 | 65 | 110 | 3.0 | 8.0 | 0.00 | 0.16 | 0.10 | 80 | 1013.8 |
| 20260506113020 | 65 | 67 | 2.0 | 13.0 | 0.00 | 0.16 | 0.10 | 80 | 1013.8 |
| 20260506112512 | 65 | 133 | 3.0 | 13.0 | 0.00 | 0.16 | 0.10 | 79 | 1013.8 |
| 20260506112010 | 66 | 54 | 4.0 | 13.0 | 0.00 | 0.16 | 0.10 | 79 | 1013.8 |
| 20260506111512 | 66 | 94 | 3.0 | 11.0 | 0.00 | 0.16 | 0.10 | 78 | 1013.9 |
| 20260506111010 | 67 | 87 | 3.0 | 9.0 | 0.00 | 0.16 | 0.10 | 77 | 1013.8 |
| 20260506110506 | 67 | 147 | 4.0 | 13.0 | 0.00 | 0.16 | 0.10 | 76 | 1013.8 |
| 20260506110020 | 67 | 127 | 4.0 | 13.0 | 0.00 | 0.16 | 0.10 | 76 | 1013.7 |
| 20260506105508 | 67 | 47 | 3.0 | 11.0 | 0.00 | 0.16 | 0.10 | 78 | 1013.8 |
| 20260506105004 | 66 | 221 | 4.0 | 11.0 | 0.00 | 0.16 | 0.10 | 76 | 1013.8 |
| 20260506104504 | 67 | 206 | 3.0 | 11.0 | 0.00 | 0.16 | 0.10 | 76 | 1013.9 |
| 20260506104003 | 67 | 164 | 3.0 | 11.0 | 0.00 | 0.16 | 0.10 | 75 | 1014.1 |
| 20260506103507 | 67 | 158 | 4.0 | 10.0 | 0.00 | 0.16 | 0.10 | 74 | 1014.1 |
| 20260506103004 | 67 | 147 | 4.0 | 11.0 | 0.00 | 0.16 | 0.10 | 74 | 1014.0 |
| 20260506102508 | 67 | 115 | 5.0 | 12.0 | 0.00 | 0.16 | 0.10 | 73 | 1014.1 |
| 20260506102004 | 67 | 98 | 4.0 | 12.0 | 0.00 | 0.16 | 0.10 | 73 | 1014.1 |